Flag for Poland Weather past 2 weeks in Grudziądz, Poland

Now
64 °F

Overcast.


Feels Like: 64 °F
Forecast: 55 / 71 °F
Wind: 2 mph from Northeast

Location: Torun

Current Time: Sep 2, 2014 at 7:42:20 PM

Latest Report: Sep 2, 2014 at 6:00 PM


Visibility: 31 mi

Pressure: 30.18 "Hg

Humidity: 58%

Dew point: 48 °F

Location of GrudziądzLocation

Historic Weather in Grudziądz — Graph

°F

Grudziądz temperature yesterday

Maximum temperature yesterday: 65 °F (at 4:00 PM)
Minimum temperature yesterday: 54 °F (at 10:00 AM)
Average temperature yesterday: 60 °F

Past Weeks' High & Low Weather Summary

 TemperatureHumidityPressure
High74 °F (Aug 29, 2:00 PM)99% (Aug 22, 7:00 AM)30.18 "Hg (Aug 22, 7:00 AM)
Low41 °F (Aug 22, 6:00 AM)30% (Aug 22, 5:00 PM)29.66 "Hg (Aug 18, 6:00 PM)
Average59 °F74%29.93 "Hg
* Reported Aug 18 6:00 PM — Sep 2 6:00 PM, Grudziądz, Weather by CustomWeather, © 2014

Note: Actual official high and low records may vary slightly from our data, if they occured in-between our weather recording intervals... More about our weather records

Advertising

Grudziądz weather history for previous 24 hours

 ConditionsComfort  
Time TempWeatherWind HumidityBarometerVisibility
6:00 PM
Sep 2
64 °FOvercast.2 mph58%30.18 "Hg31 mi
5:00 PM64 °FLight rain. Overcast.2 mph60%30.18 "Hg31 mi
4:00 PM63 °FOvercast.2 mph61%30.17 "Hg31 mi
3:00 PM64 °FOvercast.3 mph59%30.17 "Hg28 mi
2:00 PM63 °FOvercast.2 mph62%30.17 "Hg28 mi
1:00 PM63 °FOvercast.3 mph58%30.17 "Hg28 mi
12:00 PM62 °FOvercast.3 mph62%30.16 "Hg25 mi
11:00 AM60 °FOvercast.3 mph68%30.16 "Hg22 mi
10:00 AM60 °FOvercast.3 mph72%30.15 "Hg28 mi
9:00 AM58 °FLight rain. Overcast.5 mph77%30.14 "Hg28 mi
8:00 AM56 °FOvercast.2 mph79%30.13 "Hg28 mi
7:00 AM55 °FOvercast.2 mph82%30.13 "Hg31 mi
6:00 AM54 °FOvercast.2 mph82%30.11 "Hg28 mi
5:00 AM55 °FOvercast.1 mph82%30.10 "Hg31 mi
4:00 AM55 °FOvercast.2 mph82%30.10 "Hg28 mi
3:00 AM56 °FOvercast.2 mph82%30.09 "Hg28 mi
2:00 AM56 °FOvercast.1 mph83%30.10 "Hg31 mi
1:00 AM56 °FOvercast.1 mph82%30.10 "Hg31 mi
12:00 AM57 °FOvercast.1 mph81%30.09 "Hg31 mi
11:00 PM
Sep 1
58 °FOvercast.1 mph77%30.09 "Hg31 mi
10:00 PM59 °FOvercast.2 mph74%30.09 "Hg31 mi
9:00 PM60 °FOvercast.2 mph71%30.07 "Hg31 mi
8:00 PM61 °FOvercast.2 mph71%30.06 "Hg31 mi
7:00 PM63 °FOvercast.2 mph68%30.06 "Hg31 mi
Weather by CustomWeather, © 2014

See weather overviewHow to use our weather pages